Location: Audressein
(42.9294°N, 1.0236°E)
Time: 10:46:32
(UTC+00:00)

Daily predictions for brighter satellites

Satellite Brightness Start Highest point End
(mag) Time Altitude Azimuth Time Altitude Azimuth Time Altitude Azimuth
Cosmos 1697 Rocket 3.0 16:41:48 10° NNW 16:47:11 44° ENE 16:52:31 10° SE
NOAA 6 4.4 16:43:46 10° SE 16:48:35 42° ENE 16:53:24 10° N
Cosmos 2221 2.9 16:46:04 10° SSW 16:50:19 70° W 16:54:37 10° N
Sich 1 4.1 16:47:11 10° NNE 16:50:44 24° ENE 16:54:17 10° SE
Cosmos 1980 Rocket 3.1 16:46:31 10° N 16:51:17 27° NE 16:56:00 10° ESE
Cosmos 1805 Rocket 4.2 16:48:53 10° N 16:52:48 32° ENE 16:56:43 10° SE
Cosmos 2369 4.3 16:48:08 10° N 16:53:20 34° NE 16:58:30 10° ESE
Cosmos 1842 Rocket 3.9 16:50:44 10° SSW 16:55:11 73° W 16:59:41 10° N
USA 234 3.4 16:49:15 10° ESE 16:55:35 55° NNE 17:01:57 10° NW
CZ-4C R/B 3.6 16:50:59 10° NNW 16:57:15 33° NE 17:04:26 10° E
Cosmos 1092 Rocket 4.2 16:52:46 10° N 16:58:57 51° ENE 17:05:05 10° SSE
Cosmos 2084 3.5 16:54:55 10° NNW 16:59:14 73° NE 17:03:43 10° SE
Cosmos 1812 4.3 16:56:51 10° SE 16:59:19 17° E 17:01:47 10° NE
NOSS 3-1 (A) 4.1 16:52:12 10° NW 16:59:49 77° NE 17:08:40 10° SE
SL-16 R/B 4.0 17:00:16 10° NNE 17:02:02 11° NE 17:03:47 10° ENE
ISS -2.5 16:59:12 10° NW 17:02:07 26° NNE 17:04:58 10° ENE
SMAP 3.1 16:59:59 10° SSE 17:04:31 57° ENE 17:09:06 10° N
Meteor 1-25 Rocket 4.2 16:59:05 10° N 17:04:37 61° ENE 17:10:09 10° SSE
Cosmos 2082 Rocket 2.8 16:59:34 10° S 17:04:42 36° ESE 17:09:51 10° NE
Meteor PRIRODA 3.8 17:01:37 10° S 17:05:14 75° WSW 17:08:53 10° NNW
Cosmos 1939 Rocket 2.9 17:01:42 10° SSE 17:05:45 63° ENE 17:09:48 10° N
CORIOLIS 4.2 17:02:14 10° SSE 17:07:29 57° ENE 17:12:48 10° N
NOAA 12 4.3 17:05:23 10° SSE 17:10:42 82° WSW 17:16:04 10° NNW
CZ-4B DEB 4.3 17:08:30 10° SSE 17:13:52 56° ENE 17:19:14 10° N
Cosmos 2278 4.4 17:12:21 10° N 17:17:22 31° NE 17:22:20 10° ESE
Cosmos 1602 3.7 17:14:15 10° N 17:18:04 61° E 17:21:54 10° SSE
AQUARIUS 4.1 17:14:00 10° SSE 17:18:26 67° ENE 17:22:55 10° N
Cosmos 540 Rocket 3.4 17:14:36 10° S 17:19:41 73° ESE 17:24:47 10° NNE
Cosmos 1627 Rocket 4.5 17:14:18 10° N 17:20:27 63° E 17:26:29 10° SSE
Cosmos 2034 Rocket 4.4 17:14:53 10° SSW 17:20:59 66° W 17:27:08 10° N
Radarsat 4.5 17:17:43 10° SSE 17:22:53 75° ENE 17:28:06 10° N
ARGOS 3.9 17:19:32 10° SE 17:24:11 30° ENE 17:28:49 10° N
Cosmos 2279 Rocket 4.4 17:19:04 10° SSE 17:24:46 40° E 17:30:29 10° NNE
COSMOS 2406 3.2 17:19:33 10° SSW 17:25:19 89° ESE 17:31:05 10° NNE
Cosmos 1833 Rocket 3.0 17:21:03 10° SSW 17:26:38 70° WNW 17:32:17 10° NNE
COSMO-SKYMED 1 3.4 17:23:32 10° NE 17:27:22 30° E 17:31:11 10° SSE
Cosmos 1782 2.7 17:24:15 10° S 17:28:12 65° E 17:32:09 10° NNE
Cosmos 1814 Rocket 4.4 17:24:24 10° S 17:29:16 41° ESE 17:33:44 12° NE
ATLAS 5 CENTAUR R/B 3.5 17:25:28 10° NW 17:31:22 22° N 17:33:07 17° NE
Meteor 2-21 4.4 17:25:22 10° N 17:31:26 68° E 17:37:26 10° SSE
Cosmos 921 Rocket 4.5 17:30:02 10° SE 17:32:42 17° E 17:32:43 17° E
CZ-2C R/B 3.7 17:31:49 10° S 17:33:00 11° SSE 17:34:10 10° SE
Cosmos 1633 Rocket 3.7 17:32:01 10° N 17:36:00 33° ENE 17:39:58 10° SE
CZ-2D R/B 3.1 17:35:26 10° SSE 17:39:14 70° ENE 17:43:03 10° N
Cosmos 1898 Rocket 4.0 17:34:57 10° NNW 17:40:08 62° WSW 17:45:15 10° S
Cosmos 1634 Rocket 4.0 17:35:17 10° S 17:41:37 86° E 17:47:59 10° N
COSMOS 2455 2.8 17:36:33 10° SSW 17:42:34 88° ESE 17:48:14 12° NNE
PAYLOAD B 4.2 17:38:04 10° SSE 17:43:40 78° ENE 17:49:17 10° NNW
CZ-4B R/B 3.2 17:40:57 10° SSE 17:46:14 56° ENE 17:51:28 10° N
CZ-2C R/B 2.7 17:41:50 10° NNE 17:46:54 52° E 17:51:55 10° S
Cosmos 1151 Rocket 3.0 17:42:59 10° S 17:47:12 56° E 17:51:27 10° NNE
Cosmos 1500 3.0 17:43:50 10° N 17:47:35 89° ENE 17:51:19 10° S
Cosmos 2026 Rocket 4.0 17:43:06 10° N 17:49:15 82° W 17:55:18 10° S
Okean O Rocket 1.9 17:46:07 10° SE 17:50:20 44° ENE 17:54:35 10° N
Lacrosse 5 rocket 2.7 17:47:22 10° NNW 17:50:27 21° NNE 17:50:36 21° NNE
Cosmos 2208 Rocket 4.2 17:53:11 10° S 17:58:24 52° ESE 18:01:39 23° NE
GPS 2-04 Rocket1 4.5 17:55:28 10° WSW 17:58:57 27° S 18:01:28 15° SE
Cosmos 1666 Rocket 3.4 17:57:27 10° N 18:01:55 79° E 18:06:18 10° SSE
H-2A R/B 2.1 17:57:10 10° S 18:02:22 80° WSW 18:07:28 10° NNW
NOSS 2-2 (C) 4.4 17:57:21 10° NW 18:02:47 87° NE 18:10:28 10° SE
Meteor 1-11 Rocket 4.3 17:58:55 10° N 18:03:57 33° ENE 18:05:46 27° ESE
Cosmos 1328 Rocket 3.5 18:00:21 10° S 18:04:43 62° E 18:07:30 22° NNE
Cosmos 1470 Rocket 3.9 18:00:54 10° N 18:05:07 40° ENE 18:09:19 10° SSE
USA 267 4.1 18:01:03 17° NE 18:05:43 42° NNW 18:11:47 10° W
Cosmos 1655 Rocket 4.2 18:01:09 10° N 18:07:18 47° ENE 18:13:23 10° SSE
USA 305 4.5 18:05:29 10° NW 18:08:42 20° NNE 18:08:46 20° NNE
Cosmos 2360 Rocket 4.0 18:05:41 10° N 18:07:10 14° NNE 18:07:10 14° NNE
Landsat 5 3.3 18:08:42 39° NE 18:09:57 60° E 18:13:52 10° S
Cosmos 2180 Rocket 4.4 18:07:05 10° S 18:13:24 74° E 18:19:41 10° NNE
Cosmos 841 Rocket 4.3 18:08:55 10° SW 18:13:54 49° WNW 18:18:54 10° N
SKYMED 2 3.6 18:12:01 15° N 18:15:34 81° WNW 18:19:53 10° SSW
Feng Yun 1-1 Rocket 4.4 18:09:55 10° SE 18:15:39 55° ENE 18:21:23 10° N
Meteor 2-8 Rocket 4.3 18:10:51 10° S 18:16:59 77° E 18:23:10 10° N
Cosmos 1666 2.7 18:13:20 10° NNW 18:17:03 74° W 18:20:44 10° S
ATLAS CENTAUR R/B 3.7 18:10:15 10° WSW 18:18:24 37° NW 18:20:43 22° N
Cosmos 1125 Rocket 4.1 18:18:15 10° N 18:22:14 37° NE 18:22:14 37° NE
SL-24 R/B - RUBIN 2 4.2 18:22:28 10° NW 18:26:49 54° WSW 18:31:01 10° SSE
Cosmos 2322 Rocket 3.3 18:24:26 10° N 18:27:49 27° NNE 18:27:49 27° NNE
SL-08 RB Rocket 3.6 18:28:54 10° SSE 18:33:32 87° E 18:38:11 10° NNW
Cosmos 1812 4.4 18:31:16 10° SW 18:34:46 33° WNW 18:37:47 13° NNW
Cosmos 1980 Rocket 3.0 18:30:06 10° NW 18:35:33 50° WSW 18:40:56 10° S
USA 234 4.0 18:32:20 10° SSE 18:38:38 50° SW 18:44:58 10° WNW
ISS -2.3 18:35:49 10° WNW 18:37:58 36° WNW 18:37:58 36° WNW
CZ-4C R/B 3.1 18:39:05 10° NW 18:46:32 79° WSW 18:55:06 10° SSE
Cosmos 1515 Rocket 3.9 18:42:30 10° S 18:46:04 57° SSW 18:46:04 57° SSW
SL-16 R/B 2.6 18:41:49 10° NNW 18:46:11 47° NNE 18:46:11 47° NNE
Cosmos 2082 Rocket 3.6 18:43:36 10° WSW 18:48:46 35° NW 18:52:35 17° N
Cosmos 44 Rocket 3.7 18:49:24 10° NNW 18:53:10 53° NNW 18:53:10 53° NNW
Meteor 1-27 Rocket 4.2 19:02:39 10° S 19:06:41 50° SSW 19:06:41 50° SSW
DMSP B5D2-2 4.4 19:10:16 62° WSW 19:10:16 62° WSW 19:14:47 10° SSW
Cosmos 2298 Rocket 4.4 19:04:49 10° NNW 19:09:28 61° WNW 19:09:28 61° WNW
Cosmos 921 Rocket 4.5 19:06:39 10° SW 19:09:34 34° WSW 19:09:34 34° WSW
CZ-2C R/B 3.8 19:08:33 10° SW 19:09:35 15° SSW 19:09:35 15° SSW
GEOS 3 Rocket 4.4 19:19:05 46° NW 19:19:05 46° NW 19:22:43 10° NW
Cosmos 1818 4.2 19:14:56 10° NW 19:19:33 53° W 19:19:33 53° W
Okean O Rocket 4.3 19:23:49 10° SW 19:26:53 18° W 19:29:58 10° NW
Lacrosse 5 rocket 4.2 19:25:53 10° NW 19:26:12 12° NW 19:26:12 12° NW
BREEZE-M DEB (TANK) 4.3 19:21:46 10° SW 19:44:46 79° NW 19:44:57 78° NNW
